sat.trackr.live / text

‹ back to catalog

ONEWEB-0700

NORAD 61606 · 2024-188N

PAYLOAD ACTIVE UNKNOWN

§ Identity

Operator
Country
UK
Launch date
2024-10-20
Launch site
AFWTR
Launch vehicle
Mass (kg)
RCS (m²)

Purposes: comms

External: N2YO · Heavens-Above · Gunter

§ Orbital elements

Epoch: 2026-05-24T16:46:39.992736Z

Period
109.89 min
Inclination
87.8873°
Eccentricity
0.0001257
Mean motion
13.10373973 rev/d
Perigee alt
1,220.8 km
Apogee alt
1,222.7 km
Semi-major
7,599.8 km
B*
1.9701e-3
RAAN
40.8467°
Arg perigee
94.9236°
Mean anomaly
265.2035°
Rev number
8,022

§ Raw data

ONEWEB-07001 61606U 24188N   26144.69907399  .00000700  00000+0  19701-2 0  99972 61606  87.8873  40.8467 0001257  94.9236 265.2035 13.10373973 80221

JSON: /api/v1/satellites/61606 · /tle

For live sub-satellite position, see the globe view (requires WebGL).

§ Visibility from observer

Set your observer location to see the next 7 days of passes ≥ 10°. The values pass through the URL so the page stays shareable.

No JS? Fill the form by hand. The geolocation button needs JavaScript.